UIUUUIII

Guest
Details From UIUU - Mukhino
To UIII - Irkutsk
Flight Number -
Tags Generated
Created
Modified
Stats Distance 116 nm / 215 km
Max Altitude 0 ft / 0 m
Waypoints 2
Social Downloads 1
Likes 0
Share VATSIM

Download

Looking for another format? Having issues loading an existing format? Contact us
Advertisement - Login to hide

Notes

Generated

Route

UIUU UIII

ID Type Via Altitude Latitude Longitude Leg Dist Tot Dist Heading (true) Name
O UIUU APT - 0 ft / 0 m 51.81900˚ 107.43437˚ - 0 nm - -
O UIII APT - 0 ft / 0 m 52.27217˚ 104.37436˚ 116 nm 116 nm 285° / 282° -

Altitude Profile

Advertisement - Login to hide

UIUU

Details ICAO UIUU (UUD)
Name MUKHINO
Region Russia
Timezone Asia/Irkutsk (UTC+8.0)
Stats Elevation 1,690 ft / 515 m (AMSL)
Location 51.810816° 107.441023°
Runways 3
Magnetic Variation 5.426° W

METAR

UIUU 171430Z 29007MPS 9999 -SHSN BKN030CB M09/M13 Q1030 R26/891536 NOSIG RMK QFE727/0970

Decode

TAF

TAF UIUU 171400Z 1715/1815 29003G08MPS 9999 BKN030CB BECMG 1721/1723 3100 -SHSN BKN011CB TEMPO 1723/1815 1200 SHSN VV004

Decode

Departure Runways

ID Width Length Bearing (true) Bearing (mag) Surface Threshold Offset Overrun Length
08 148 ft / 45 m 9,753 ft / 2,973 m 77.98° 83.41° Concrete 0 ft / 0 m 161 ft / 49 m
08L 341 ft / 104 m 6,682 ft / 2,037 m 78.10° 83.53° Grass 0 ft / 0 m 0 ft / 0 m
14 315 ft / 96 m 4,620 ft / 1,408 m 135.31° 140.74° Grass 0 ft / 0 m 0 ft / 0 m
26 148 ft / 45 m 9,753 ft / 2,973 m 258.01° 263.44° Concrete 0 ft / 0 m 171 ft / 52 m
26R 341 ft / 104 m 6,682 ft / 2,037 m 258.12° 263.55° Grass 0 ft / 0 m 0 ft / 0 m
32 315 ft / 96 m 4,620 ft / 1,408 m 315.32° 320.75° Grass 0 ft / 0 m 0 ft / 0 m

UIII

Details ICAO UIII (IKT)
Name Irkutsk
Region Russia
Timezone Asia/Irkutsk (UTC+8.0)
Stats Elevation 1,675 ft / 511 m (AMSL)
Location 52.266437° 104.395694°
Runways 1
Magnetic Variation 3.761° W

METAR

UIII 171430Z 33004MPS 4000 -SHSN BKN012CB M10/M12 Q1036 R30/490340 NOSIG RMK QFE731/0975

Decode

TAF

TAF UIII 171400Z 1715/1815 30004MPS 9999 SCT012CB TEMPO 1715/1721 2900 -SHSN BECMG 1800/1802 16005MPS

Decode

Destination Runways

ID Width Length Bearing (true) Bearing (mag) Surface Threshold Offset Overrun Length
12 148 ft / 45 m 10,408 ft / 3,172 m 113.68° 117.44° Concrete 1,312 ft / 400 m 266 ft / 81 m
30 148 ft / 45 m 10,408 ft / 3,172 m 293.72° 297.48° Concrete 1,178 ft / 359 m 1,316 ft / 401 m

Approach Navaids

Runway Type Ident Frequency Range Bearing (true) Bearing (mag) Slope Elevation
12 Localiser ICN 111.30 MHz 18 nm / 33 km 113.46° 117.22° - 1,675 ft / 511 m (AMSL)
12 Glidescope ICN 111.30 MHz 10 nm / 19 km 113.70° 117.46° 3.30° 1,675 ft / 511 m (AMSL)
30 Localiser IIR 110.30 MHz 18 nm / 33 km 293.46° 297.22° - 1,675 ft / 511 m (AMSL)
30 Glidescope IIR 110.30 MHz 10 nm / 19 km 293.70° 297.46° 3.30° 1,675 ft / 511 m (AMSL)

Popular Alternatives